GFSNGP_con_3kmhel_195.txt.gz
Helicity
189 202 201 172 146 185 218 206 220 183 179 139 120 117 105 165 107 108 108 80 -28 38 221 244 193 41 -0 5 1 -5 43 130 205 260 317 326 339 365 402 407 375 344 313 294
170 187 134 153 174 137 96 98 134 140 119 56 12 40 79 164 144 95 122 85 70 36 256 298 177 66 66 78 51 24 18 60 137 199 246 284 312 313 305 309 315 315 305 266
199 124 168 318 117 125 70 73 112 130 54 4 10 6 6 56 81 128 67 113 281 181 177 212 97 91 122 106 95 79 66 89 131 191 240 278 277 283 285 277 277 293 288 335
183 150 282 193 168 77 49 76 88 83 -1 28 23 58 45 36 128 170 147 181 180 176 36 -36 106 135 157 156 148 129 153 151 162 195 230 243 262 260 279 293 297 279 309 314
212 190 142 57 98 105 89 85 46 88 58 70 -5 -23 64 93 132 234 356 393 324 139 96 85 110 162 193 181 219 228 208 206 194 227 256 244 267 342 317 297 263 280 259 242
166 213 246 85 77 92 41 65 87 49 21 -14 -43 -117 -40 98 196 236 240 242 -30 44 97 110 112 135 237 226 266 278 255 196 205 260 273 282 252 333 397 281 243 277 242 184
145 165 93 112 65 19 70 64 15 9 -10 -26 -95 -55 31 220 141 123 57 24 87 160 106 57 13 47 198 238 215 251 237 289 286 264 292 314 353 380 292 297 261 250 220 166
109 154 110 28 14 -15 54 -4 8 6 -2 -27 -55 -22 -26 107 75 137 156 98 139 146 99 57 27 67 144 150 210 244 258 303 321 310 316 389 408 331 339 349 259 243 231 197
127 128 87 63 -0 -31 -30 3 12 -0 75 83 32 -68 -51 -73 87 84 57 81 114 119 118 60 40 41 76 114 220 269 258 237 302 299 327 383 376 366 349 283 223 271 264 227
22 12 31 -5 27 -17 -8 -54 -21 -14 81 33 28 21 43 85 -63 50 159 172 116 99 88 59 47 43 56 105 157 215 255 234 239 286 355 359 343 334 298 235 240 255 271 214
54 33 50 37 54 51 3 16 -1 -55 -35 6 54 14 97 174 137 91 118 183 130 72 67 53 90 64 62 112 156 195 248 207 248 300 321 323 295 278 209 198 189 234 232 167
95 84 6 43 27 22 61 42 34 31 53 37 -7 47 35 142 16 58 89 191 138 124 92 85 83 59 71 104 142 207 235 222 233 262 303 282 263 231 153 153 163 134 128 134
7 15 20 36 50 78 138 110 100 45 15 19 -1 10 11 22 75 117 249 236 185 116 110 113 95 40 55 91 151 192 198 215 246 258 245 218 186 193 200 155 112 84 61 80
14 -71 -139 18 -2 37 78 104 119 96 70 50 31 93 65 84 120 169 142 133 120 158 156 153 114 48 57 85 145 174 185 176 214 204 188 178 182 194 207 204 186 158 123 118
-48 -21 67 66 77 43 44 106 99 71 60 51 54 38 83 134 131 130 159 160 167 173 175 151 112 90 75 87 158 205 206 155 178 206 198 191 197 215 210 214 209 227 216 177
-33 -70 18 19 20 23 68 33 60 71 56 85 79 77 24 85 77 133 171 181 193 141 136 127 105 107 107 97 174 223 191 160 179 181 181 190 201 189 161 158 175 189 220 222
15 16 61 46 42 10 6 12 -41 -39 -53 41 68 110 133 146 148 173 144 164 188 155 165 113 96 114 121 129 203 226 217 172 187 212 204 205 182 155 151 142 141 169 169 181
91 91 64 54 62 20 -36 -44 -35 -33 -54 -86 -65 -17 66 86 66 94 157 183 209 180 110 59 90 118 142 173 246 259 240 206 193 194 189 162 130 126 118 98 91 93 105 125
142 134 116 54 10 13 -37 -39 -46 -40 -33 -29 -40 -58 -65 -33 47 85 108 128 114 88 65 66 84 131 175 212 259 257 239 209 181 154 122 98 90 100 111 104 96 110 143 156
78 79 35 15 -23 -33 -33 -20 -18 -13 -16 -16 -13 6 -16 -41 -76 -10 -4 -39 -42 16 51 81 107 145 177 217 228 204 185 155 121 93 74 78 79 82 80 88 87 78 152 198
54 46 -11 -11 -24 -9 -15 -13 -9 -2 4 10 10 35 65 10 -3 -40 -12 15 -0 -45 -22 101 128 138 159 154 139 110 84 77 71 77 72 69 59 51 75 87 104 153 200 208
46 26 -26 -22 -11 -1 1 -0 -0 11 12 9 5 6 9 20 34 25 17 4 1 57 84 88 89 86 74 68 50 55 55 56 48 68 89 102 99 95 114 134 133 164 225 200
47 5 -23 -12 2 15 33 9 14 29 34 -3 65 75 24 19 31 46 29 9 52 50 54 46 32 35 36 28 44 61 75 80 86 93 111 139 137 122 117 131 152 177 193 225
47 8 -6 -0 4 27 20 8 8 33 49 52 68 73 86 31 43 47 60 61 46 19 17 9 11 27 45 25 61 97 103 99 115 112 94 100 110 120 127 141 160 178 207 229
44 21 -0 -12 -1 18 27 20 6 21 50 56 62 69 62 54 36 64 84 56 47 49 46 55 77 86 74 91 121 126 125 126 118 116 119 121 123 125 138 162 176 202 228 241
37 17 -7 -11 2 2 23 39 31 28 33 51 58 74 78 85 102 119 116 106 95 109 105 99 112 119 117 119 125 124 121 120 120 122 126 130 139 145 168 180 199 221 232 236
27 20 3 -16 -13 4 24 43 45 50 60 53 56 66 79 99 108 129 132 105 100 103 97 99 109 116 123 126 123 119 113 114 121 129 127 129 138 159 186 188 205 221 239 247

GFSNGP_con_3kmhel_198.txt.gz
Helicity
136 209 223 155 124 186 230 164 200 155 181 154 161 137 86 48 47 48 61 66 132 220 225 260 287 157 101 96 111 87 78 96 118 168 229 280 326 375 434 433 438 385 370 347
164 176 135 119 131 131 86 106 146 107 146 84 97 109 131 81 42 50 61 52 69 165 192 274 312 261 84 140 62 76 64 50 83 118 146 195 228 248 265 276 288 288 296 284
136 162 205 213 126 116 103 93 125 179 108 90 121 118 78 37 35 119 50 63 13 95 109 293 375 333 135 106 55 44 52 50 70 93 116 132 166 203 231 253 272 266 236 252
198 235 358 162 142 75 67 87 76 83 83 74 94 89 72 13 91 75 20 93 124 160 225 218 200 124 108 159 103 85 76 81 105 109 128 136 147 164 201 238 232 231 249 228
301 283 246 162 150 62 51 115 68 80 91 77 60 42 15 -9 4 37 148 183 214 240 266 178 53 93 106 137 171 141 97 107 115 133 153 167 184 182 191 240 259 280 238 216
325 335 314 141 62 26 71 97 121 61 44 64 54 28 -19 -20 24 56 162 214 231 159 159 43 8 109 104 134 174 171 155 136 134 121 145 196 214 246 263 230 241 261 214 188
231 289 196 80 98 79 119 75 31 36 10 47 37 -16 -63 -33 45 97 100 128 133 110 129 93 43 77 73 133 132 146 185 174 170 178 201 205 255 278 275 271 283 227 221 163
229 280 220 185 161 141 81 53 44 25 -4 22 25 -29 -35 -41 -0 -18 196 35 61 104 83 45 16 42 83 63 73 140 153 206 230 219 243 280 281 287 281 307 315 231 194 187
123 108 139 251 233 111 44 37 3 9 -8 -7 6 -60 -29 -21 -28 37 73 -22 81 97 112 118 80 48 59 54 108 156 194 235 270 315 306 295 326 314 314 295 301 226 213 178
60 13 19 16 -7 18 58 66 36 10 -21 5 17 -5 -49 -21 23 -7 54 13 92 100 107 69 55 51 46 77 119 145 170 220 255 250 245 252 280 289 291 296 291 235 200 178
88 75 57 28 45 58 59 83 89 75 65 53 47 5 -58 -41 32 107 64 -69 98 65 62 47 55 64 60 71 101 112 144 199 208 212 231 278 266 267 250 245 231 219 187 185
108 78 81 60 61 62 77 60 84 83 83 118 94 40 10 32 1 105 39 1 63 115 136 102 77 58 64 56 67 110 158 200 206 194 196 262 295 292 243 213 198 177 157 156
-30 -3 -47 -35 -7 100 82 80 81 102 117 101 93 75 55 87 84 21 -0 68 108 146 151 139 91 77 53 57 63 88 135 165 176 210 189 225 222 227 159 94 92 111 117 98
30 -16 -64 -13 -0 35 45 61 67 82 88 79 96 97 94 67 95 135 95 61 154 167 139 145 105 80 78 72 67 91 112 115 153 158 147 156 156 157 157 133 102 73 51 59
-27 -43 -61 -55 19 -12 36 56 62 97 103 114 118 91 107 75 91 123 82 154 188 202 175 127 140 123 116 84 62 87 114 113 151 156 144 140 163 169 173 165 144 131 117 87
37 25 -31 12 43 68 73 48 45 43 48 53 65 93 115 120 110 84 197 208 250 198 123 99 120 110 105 91 92 109 89 87 158 165 171 149 164 178 176 165 157 160 166 162
57 33 68 61 58 74 74 43 -50 -43 -39 31 48 -24 33 84 115 140 130 132 189 183 174 122 131 124 134 107 115 153 124 113 147 152 152 148 164 163 159 151 141 154 166 172
80 100 111 109 72 56 18 -18 -64 -50 -42 -20 -18 -4 -12 -10 50 93 113 184 152 136 118 139 154 162 141 130 152 173 163 140 142 130 142 134 134 128 118 114 114 115 125 110
100 108 118 112 71 49 -12 -37 -36 -41 -46 -12 1 19 23 9 -25 1 82 115 129 137 156 176 163 142 120 127 165 188 181 155 149 135 127 126 108 100 100 89 88 97 100 102
51 88 83 87 7 9 -31 -32 -19 -12 -18 -4 6 -0 20 31 29 -9 -30 -16 43 115 129 156 130 104 108 150 187 195 179 165 152 133 124 102 94 99 91 85 83 89 99 105
64 73 61 59 -22 -8 -16 -18 -8 1 4 4 9 7 6 41 56 41 46 33 -4 -14 -52 -53 11 114 137 168 197 184 156 146 126 107 91 70 68 62 60 59 69 97 105 125
68 66 61 28 -23 -12 10 8 -1 6 19 19 27 36 -5 1 29 29 -4 -3 -12 -12 -3 4 7 82 141 159 149 139 117 97 90 79 68 58 49 39 33 43 70 97 126 160
53 57 55 25 -8 -9 26 13 13 4 26 47 21 34 46 15 18 34 14 -0 12 9 24 38 63 87 99 92 78 68 62 62 56 56 56 48 50 55 64 72 87 120 126 135
41 44 52 42 11 3 5 22 20 17 21 44 57 60 49 56 24 9 45 59 48 51 54 49 42 40 52 45 40 42 44 43 43 42 43 63 76 83 85 104 105 111 136 159
30 27 41 25 8 -5 -6 21 31 19 32 49 56 65 44 43 24 34 67 56 46 31 27 24 28 32 22 46 40 37 42 49 49 64 70 79 79 83 85 103 118 136 158 176
35 38 33 33 -2 -6 -0 12 21 24 40 48 52 59 60 67 75 84 95 98 75 58 39 34 44 57 46 50 60 63 67 71 77 77 86 96 102 109 116 128 144 161 179 195
30 31 28 21 15 1 -4 7 31 35 38 44 61 65 66 76 90 112 122 120 108 105 101 94 76 85 83 86 100 93 97 98 99 105 101 103 114 117 128 140 162 180 207 226

GFSNGP_con_3kmhel_201.txt.gz
Helicity
240 206 190 179 205 223 249 282 290 152 189 155 117 152 140 112 96 108 100 145 144 123 115 141 163 221 230 234 254 84 66 48 78 107 141 148 213 282 341 398 458 380 365 300
207 141 135 145 173 177 181 167 210 200 184 101 134 138 130 105 91 122 175 141 82 40 35 112 219 230 284 244 296 190 -23 24 58 78 105 123 147 171 218 251 263 267 247 233
230 176 191 161 141 134 192 162 160 200 170 147 132 106 100 75 77 103 93 91 48 20 45 135 277 330 284 227 148 153 34 37 43 62 82 94 122 149 169 198 234 255 254 234
188 218 207 182 219 132 76 109 129 142 134 105 95 87 64 83 68 50 35 27 11 70 110 210 299 215 257 179 121 -5 29 69 80 76 84 99 117 122 148 171 182 185 196 213
236 279 223 193 151 122 133 162 127 95 52 67 46 52 61 49 41 40 12 -20 -15 23 77 98 65 26 124 175 66 108 90 105 113 95 93 115 133 153 165 187 197 194 175 198
340 343 279 212 106 85 102 256 53 46 70 69 50 78 70 35 32 15 -25 -11 3 61 78 105 54 176 6 29 121 115 107 91 99 113 100 95 128 172 192 208 213 201 194 170
289 345 325 219 145 123 285 153 90 77 77 63 69 60 40 38 17 -2 20 9 10 57 74 63 69 -2 60 77 66 83 99 103 118 130 149 164 176 172 220 242 231 215 196 167
338 365 383 240 206 262 220 204 118 120 70 45 39 48 29 13 -16 -16 3 15 26 70 45 67 36 53 48 28 32 79 88 113 141 172 219 239 246 255 255 271 252 215 208 189
266 264 146 122 134 130 156 194 145 117 56 37 28 38 50 45 -4 9 29 40 90 98 62 61 45 41 48 31 70 73 89 100 136 183 267 282 278 267 294 253 244 209 191 167
200 157 99 73 96 88 56 38 51 47 79 73 64 43 81 61 32 39 42 24 70 55 35 47 55 70 64 68 81 94 107 126 164 198 215 237 219 233 255 219 240 212 194 181
164 85 65 74 85 113 77 70 41 44 65 71 74 61 88 88 57 59 69 68 21 39 31 66 56 54 40 72 91 106 115 123 137 145 152 223 207 205 202 192 219 205 194 194
181 101 111 75 83 87 79 44 73 86 80 90 90 82 87 97 104 128 74 96 59 60 17 49 73 59 44 40 59 90 108 122 137 157 180 234 259 214 171 202 172 155 164 170
112 92 84 -48 -65 -28 -10 -7 65 86 82 85 89 101 112 95 84 68 118 58 -24 15 45 27 69 83 70 69 71 64 87 101 123 153 174 206 258 226 195 134 148 109 97 103
38 30 -11 -12 20 47 50 2 44 41 44 67 86 112 117 108 102 75 24 59 84 142 140 119 117 76 77 75 83 73 68 92 109 129 157 153 190 170 152 158 138 101 58 76
42 44 67 23 -13 22 50 62 51 60 71 85 106 101 83 47 60 91 52 30 74 171 229 167 171 121 108 117 120 109 81 71 82 129 155 152 152 133 116 130 114 123 118 82
24 36 61 75 59 58 56 51 54 61 65 46 15 35 26 7 -0 63 80 49 100 157 171 158 178 160 147 136 140 131 112 95 90 122 161 158 147 156 142 143 134 118 105 107
19 24 53 43 70 68 75 74 74 16 -36 -38 -33 55 18 -17 -73 -22 66 78 70 123 164 199 189 186 125 126 128 110 136 130 117 127 161 152 146 153 152 156 142 133 132 140
81 98 117 126 98 92 76 63 -12 -43 -50 -40 -46 -42 -16 8 -18 -40 7 56 95 122 121 159 191 174 135 115 125 120 154 154 120 140 174 153 148 153 147 145 133 126 125 131
66 69 81 97 100 95 48 21 -26 -34 -35 -36 -15 -9 2 16 -1 -13 -34 -17 42 70 119 158 165 167 186 116 145 145 176 168 146 145 154 151 152 147 141 117 106 107 91 90
44 67 85 94 85 55 2 -8 -9 -18 -10 -9 7 -3 7 4 9 7 13 3 -19 1 84 119 141 161 166 146 150 161 179 173 138 150 158 140 128 115 95 78 77 83 88 85
55 71 74 72 61 34 -5 -8 -0 -1 4 1 -2 18 25 7 -12 21 30 8 8 34 -4 14 114 159 155 150 155 176 197 162 153 161 136 118 104 87 71 75 75 75 71 73
63 66 59 59 53 -7 -2 -1 16 16 9 10 15 6 20 15 -7 -7 11 30 1 27 18 -4 -31 -52 -63 -9 169 189 172 159 144 135 107 79 67 63 49 49 53 62 74 91
46 54 56 49 44 20 -3 -4 8 9 13 10 27 34 -4 4 31 29 10 16 27 27 13 6 1 4 29 91 158 156 137 118 95 64 58 56 48 35 34 37 43 67 84 99
37 36 47 31 32 31 1 -1 11 25 17 14 30 40 33 69 62 41 36 67 68 50 52 59 74 94 109 107 96 73 54 52 57 63 62 56 47 48 51 57 62 68 80 94
21 23 30 36 30 22 12 10 9 20 22 24 33 41 47 40 21 31 56 71 73 59 50 47 50 73 69 53 49 42 51 57 55 57 51 49 55 50 50 66 69 71 77 99
21 17 24 32 32 24 23 11 12 16 23 25 32 42 39 40 50 60 65 77 70 60 48 33 32 48 54 56 58 58 60 67 62 51 51 54 60 68 74 81 90 97 112 142
28 30 32 26 22 15 14 10 13 22 24 30 39 45 49 58 67 76 86 93 94 89 89 69 55 58 63 69 81 80 78 78 75 73 71 76 82 79 81 91 109 131 157 181

GFSNGP_con_3kmhel_204.txt.gz
Helicity
546 473 438 394 376 359 378 344 332 260 202 144 88 46 89 128 116 94 96 84 89 79 88 113 106 112 198 225 245 196 179 143 141 146 182 63 105 144 163 227 294 331 388 456
545 523 502 363 309 289 259 271 235 188 148 114 83 156 160 122 91 93 91 84 84 82 76 114 80 67 185 247 219 216 180 165 160 175 47 59 101 98 132 153 205 201 244 238
425 350 296 260 218 241 292 294 232 233 169 253 223 192 142 102 93 97 83 80 76 54 55 75 80 126 184 169 168 197 190 203 188 33 65 60 75 83 100 136 153 169 198 197
393 354 360 317 342 247 151 227 181 202 185 182 164 145 110 82 75 65 69 48 50 37 32 62 91 129 130 152 163 170 187 136 -5 11 28 48 89 112 122 126 135 156 167 166
369 367 405 292 214 174 198 170 154 148 142 151 123 128 85 27 56 75 59 53 67 43 21 28 61 79 118 159 142 121 128 -15 37 67 71 74 88 100 116 128 132 137 131 141
439 432 317 224 233 276 262 236 80 169 164 147 159 181 133 60 76 106 100 92 85 64 -4 13 58 88 134 80 42 17 21 43 46 56 73 83 102 113 113 129 149 157 168 169
406 349 257 264 282 258 267 165 237 190 133 145 159 140 86 97 86 80 61 51 48 32 26 39 55 35 -6 1 -3 41 71 45 29 57 75 110 138 136 148 167 183 166 165 154
333 315 263 163 263 257 168 157 142 154 136 141 138 99 83 53 63 69 41 45 30 37 40 52 61 28 23 31 36 50 37 56 71 91 121 159 210 220 220 238 235 201 189 159
259 239 169 99 154 80 118 119 95 88 85 121 99 69 72 61 47 52 49 48 29 -11 44 95 72 38 47 37 34 35 66 75 96 121 142 174 229 246 234 233 225 207 171 148
234 232 191 119 127 106 113 106 98 80 53 62 76 53 54 66 46 42 66 79 38 43 15 126 68 81 45 50 66 64 70 88 100 107 124 152 185 190 198 215 218 172 172 165
208 160 137 121 94 75 89 132 128 115 106 55 57 45 51 44 43 49 62 92 100 65 -3 54 32 49 54 63 63 69 72 84 89 99 121 135 141 142 175 157 189 177 149 170
212 130 144 106 78 88 81 74 62 49 44 54 82 74 69 54 43 43 52 80 86 77 109 30 68 57 38 37 53 63 62 62 72 95 121 147 175 175 142 184 146 155 172 184
66 69 114 84 61 60 56 29 -20 -58 -65 -25 -57 -72 51 98 87 88 69 43 50 52 65 50 41 63 46 46 30 32 40 41 59 88 113 135 155 189 168 152 158 174 165 127
71 64 21 76 56 50 43 -16 -10 51 59 65 68 70 83 91 83 81 67 32 22 8 67 112 89 52 63 79 60 50 49 57 52 56 77 100 142 155 151 147 168 141 88 84
30 56 67 3 47 46 55 61 52 41 49 54 72 58 33 6 -48 -39 26 34 1 3 29 131 124 106 123 103 104 88 89 74 60 66 83 120 145 143 149 131 153 155 103 83
13 19 19 58 56 46 76 65 82 61 62 54 -62 -68 -82 -42 17 34 36 29 29 3 6 97 121 230 209 266 138 107 103 94 94 87 97 120 134 138 151 133 148 164 113 106
15 11 54 57 58 80 83 90 91 67 39 -46 -31 -23 -33 -54 -6 11 9 -42 6 31 19 63 128 177 209 157 146 136 122 116 103 106 102 104 152 146 161 167 154 158 138 131
87 76 71 69 74 91 86 71 50 28 8 7 -15 -22 -42 -47 -4 16 9 -18 -45 21 38 49 112 183 209 208 152 155 140 124 101 97 133 140 146 161 165 166 153 152 139 119
46 49 54 57 57 67 63 42 19 4 -8 -18 -10 -17 -19 2 8 17 15 22 -9 -32 23 72 105 130 164 184 184 188 163 123 90 106 142 168 162 175 163 146 136 131 118 113
33 44 52 49 53 61 55 31 9 -3 2 10 2 -4 -1 14 13 5 2 25 22 13 -5 34 87 112 128 178 268 260 180 108 100 104 167 163 151 158 135 126 113 90 76 69
27 31 37 50 47 52 61 41 -1 -6 8 16 -2 11 12 19 18 -0 -12 3 2 -1 3 38 54 122 129 135 142 149 145 118 114 151 158 137 150 140 116 86 65 63 64 68
42 49 48 43 52 50 49 42 8 -5 -3 7 11 4 24 5 -11 11 7 9 1 7 44 49 23 14 62 106 153 157 152 133 148 152 146 153 136 107 73 65 71 72 65 62
36 36 42 42 41 39 32 33 5 -0 8 26 22 13 28 26 21 -10 -29 33 36 46 37 36 42 10 -19 -21 -19 -22 152 159 138 137 143 115 90 67 65 60 57 59 61 67
42 41 41 41 33 31 25 31 19 14 6 14 20 17 28 25 27 35 36 32 62 65 39 31 39 61 66 43 40 59 99 135 144 126 99 74 59 61 61 61 48 40 52 69
41 41 37 26 14 24 22 21 25 25 13 17 24 21 27 24 13 11 25 42 66 66 57 53 68 81 85 98 105 105 100 91 78 66 61 63 66 63 59 52 49 51 58 73
21 14 5 7 16 18 20 15 14 29 20 23 23 30 35 30 31 36 45 47 56 59 53 48 59 57 51 54 51 51 56 67 71 69 74 80 75 69 68 68 79 77 85 90
15 8 10 14 17 15 14 9 2 12 15 14 22 38 45 45 53 57 58 61 73 78 72 63 57 55 61 77 82 78 76 77 80 85 83 83 81 77 81 91 104 112 118 130

GFSNGP_con_3kmhel_207.txt.gz
Helicity
268 266 274 239 244 342 388 335 346 257 230 294 235 177 155 104 93 94 90 115 119 107 91 72 47 49 47 52 64 89 122 157 169 161 139 94 119 125 95 96 105 122 167 215
257 352 388 349 371 330 334 355 277 297 200 254 177 107 116 124 111 127 127 101 91 79 60 46 46 70 50 53 64 98 150 178 169 148 127 114 133 53 59 86 85 121 149 157
335 392 405 253 329 380 433 427 374 288 180 174 133 174 189 170 151 126 103 98 97 69 47 39 55 48 51 55 74 124 166 150 135 126 121 91 21 42 13 35 88 134 101 119
431 432 349 283 325 240 222 224 218 243 243 173 223 212 162 112 120 109 113 119 92 54 36 28 44 45 47 81 104 122 138 102 97 128 53 33 52 42 44 39 46 83 92 92
413 406 336 260 282 292 279 206 213 213 188 171 178 180 133 94 98 81 87 93 88 76 41 40 55 74 74 114 148 139 132 103 71 -32 39 30 26 51 58 64 71 71 88 102
413 348 280 255 286 257 362 261 244 166 163 164 193 196 140 114 98 83 95 78 62 57 50 23 43 59 96 80 126 78 61 41 34 44 16 -17 5 58 77 80 82 75 65 66
425 359 357 294 222 312 314 222 193 127 144 181 184 143 129 105 80 58 72 49 34 28 47 24 41 24 56 26 81 26 60 62 41 33 29 19 42 66 106 115 113 115 112 96
447 407 327 224 364 284 201 139 116 128 119 126 137 139 102 66 39 32 42 31 18 16 31 20 28 32 73 39 43 62 62 55 57 64 57 62 86 113 125 130 147 148 163 131
292 261 282 73 127 140 156 153 135 131 95 87 103 72 41 57 51 39 44 36 45 34 28 8 33 43 119 76 49 38 53 61 71 66 82 105 135 144 150 138 131 114 121 122
273 202 182 40 123 166 143 120 103 102 93 86 96 80 54 36 58 62 48 45 39 22 11 15 14 -5 112 34 49 58 44 68 76 80 88 89 111 127 151 152 130 126 111 107
245 195 142 134 92 101 120 103 106 105 89 85 91 54 64 49 47 36 40 54 54 23 12 12 67 10 61 7 37 55 61 49 49 63 69 86 89 89 101 113 141 141 138 142
201 116 157 125 97 82 69 64 59 43 32 45 57 56 63 61 57 53 53 53 53 58 51 42 86 10 -7 64 44 55 50 53 47 55 71 75 90 107 91 122 147 142 161 148
106 87 42 24 26 32 27 18 28 52 53 49 56 67 88 98 91 77 70 67 69 61 66 49 45 49 22 66 59 57 54 37 29 38 50 53 68 87 115 164 177 166 156 140
30 23 17 16 7 15 25 31 31 43 50 47 40 50 57 51 49 73 69 31 21 42 55 58 60 83 41 53 43 52 73 47 19 21 31 41 41 71 108 122 125 130 118 113
-10 3 -2 13 10 14 30 29 37 30 27 34 53 58 42 30 12 -12 17 31 42 49 51 37 51 76 101 78 78 70 101 82 41 34 40 39 44 55 77 100 122 121 101 87
14 4 6 7 14 23 29 28 31 29 43 48 34 26 18 16 6 7 5 12 40 46 25 42 35 88 113 128 110 128 141 119 83 69 59 44 36 58 91 99 114 114 104 91
6 9 36 47 37 35 33 42 42 50 43 35 22 43 18 18 25 24 6 22 42 59 13 44 58 65 116 165 197 235 200 152 109 96 57 28 59 75 78 95 121 109 114 104
64 68 50 33 30 33 33 44 46 35 23 35 28 7 7 27 38 29 21 21 37 41 42 38 52 64 124 135 204 257 168 109 96 73 73 53 59 93 88 96 126 137 129 113
47 35 27 29 30 45 53 45 46 48 38 30 22 17 29 34 34 31 22 15 6 14 28 29 50 74 102 133 168 211 156 118 101 81 63 50 85 103 102 101 126 130 115 113
12 18 25 25 43 46 49 52 51 37 31 26 18 19 22 32 28 37 35 7 7 34 18 12 25 49 76 127 176 180 169 159 138 113 78 59 66 97 108 100 125 108 101 91
23 23 24 37 39 50 62 57 52 32 28 17 12 11 17 34 30 -1 27 13 22 62 40 19 12 30 80 121 149 186 187 188 181 117 62 55 67 97 103 90 106 97 83 63
37 44 46 52 51 45 58 54 37 35 20 10 9 15 19 22 40 45 44 45 39 49 39 29 48 46 60 83 123 136 110 90 99 75 59 60 69 88 85 92 95 81 63 62
60 60 63 63 56 51 61 52 42 28 24 10 13 22 27 25 33 41 28 45 27 30 47 42 32 54 49 19 50 114 107 108 88 63 70 65 68 88 86 84 74 77 73 65
80 91 78 70 75 66 57 50 35 22 23 15 9 14 27 30 38 31 27 20 17 38 41 26 30 54 64 29 -8 -34 -35 37 88 81 83 80 91 91 80 70 76 74 66 64
72 58 55 60 65 52 37 32 19 15 23 26 17 17 28 25 21 31 27 25 35 37 42 36 44 68 64 51 39 31 23 38 81 116 106 90 82 66 65 67 63 55 59 63
37 42 42 46 39 24 18 14 9 9 15 21 23 26 37 34 29 30 32 35 36 41 47 41 36 33 39 50 61 70 77 83 81 76 77 73 73 79 73 68 64 63 70 81
39 38 35 25 20 12 9 6 7 10 4 2 11 20 31 43 44 41 43 48 48 50 50 42 33 25 26 32 40 42 50 64 73 79 81 82 78 75 76 77 93 117 113 111